Location: *
(50.9167°S, 179.4000°W)
Time: 21:05:46
(UTC+00:00)

CZ-2C R/B - Pass Details

Date: 21 June 2024
Orbit: 665 x 779 km, 98.4° (Epoch: 18 July)

Event Time Altitude Azimuth Distance (km) Brightness Sun altitude
Rises 04:43:01 0° 171° (S) 3,310 5.4 -6.9°
Reaches altitude 10° 04:45:31 10° 179° (S) 2,375 4.8 -7.2°
Maximum altitude 04:50:16 35° 243° (WSW) 1,249 4.0 -7.9°
Drops below altitude 10° 04:54:55 10° 308° (NW) 2,325 6.6 -8.5°
Sets 04:57:21 0° 316° (NW) 3,232 7.3 -8.8°
